Powrót do katalogu

CZ-6A DEB

AktywnySSO
NORAD 54516·DEBRIS·🇨🇳 China

Wystrzelony Nov 11, 2022 z Taiyuan Satellite Launch Center

Loading…

Następne Przeloty (najbliższe 24 godziny)

TLE

ŚwieżeSource: Space-Track

Epoka: Sep 14, 2026, 00:50 UTC

1 54516U 22151JU  26257.03520904  .00000761  00000-0  21594-3 0  9995
2 54516  98.5388 288.3076 0136164  74.8092 286.8109 14.43095991201584

Śledź CZ-6A DEB w czasie rzeczywistym z AllMySat

Download on the App Store